Location: Unspecified
(48.2450°N, 16.2270°E)
Time: 10:22:26
(UTC+00:00)

Daily predictions for brighter satellites

Satellite Brightness Start Highest point End
(mag) Time Altitude Azimuth Time Altitude Azimuth Time Altitude Azimuth
SJ-6B 3.6 18:54:51 10° S 18:58:54 58° W 19:02:56 10° NNW
ATLAS 5 CENTAUR R/B 3.2 18:54:36 10° NNW 18:59:40 38° NE 19:05:31 10° ESE
Cosmos 2228 Rocket 3.7 18:59:12 10° N 19:03:26 39° ENE 19:07:35 10° SE
Cosmos 1328 Rocket 3.9 18:59:52 10° NNW 19:04:14 69° W 19:08:37 10° S
Cosmos 1933 4.1 19:03:59 10° NNW 19:08:01 57° W 19:12:01 10° S
Resurs 01 Rocket 1.7 19:08:42 10° SSE 19:13:05 69° ENE 19:17:29 10° N
Cosmos 1340 4.4 19:09:48 10° SW 19:13:20 38° WNW 19:16:54 10° N
Lacrosse 5 3.6 19:14:02 10° WNW 19:18:36 32° N 19:23:09 10° NE
Cosmos 1656 4.2 19:20:58 10° NNW 19:26:14 46° NE 19:31:05 12° SE
Cosmos 1782 2.9 19:23:12 10° NNW 19:27:13 80° W 19:31:14 10° S
Meteor 2-3 Rocket 4.2 19:22:44 10° SSW 19:28:30 70° WNW 19:34:20 10° N
OE (NEXTSAT) 4.4 19:25:41 10° WSW 19:29:08 58° S 19:32:34 10° E
Cosmos 1821 Rocket 4.4 19:26:22 10° SSE 19:32:04 43° E 19:37:51 10° NNE
Cosmos 1515 Rocket 4.2 19:27:59 10° NNW 19:32:22 59° W 19:36:44 10° S
Cosmos 2366 rocket 4.1 19:27:43 10° S 19:34:01 83° W 19:40:17 10° N
IRIDIUM 106 4.4 19:29:50 10° SSE 19:34:56 60° E 19:40:05 10° N
SL-8 R/B 3.7 19:31:03 10° W 19:35:54 86° SSW 19:40:37 11° ESE
EP 1 4.2 19:33:31 10° SW 19:36:29 76° SE 19:39:06 10° NE
GP-B 4.2 19:35:13 10° NNE 19:39:00 27° E 19:41:45 15° SE
Cosmos 2082 Rocket 3.9 19:37:59 12° ESE 19:39:43 14° E 19:42:33 10° ENE
Cosmos 1707 Rocket 4.3 19:39:48 10° N 19:43:52 37° ENE 19:46:47 17° SE
ERBS 2.7 19:45:22 10° SSW 19:48:28 38° SE 19:51:36 10° ENE
SL-08 R/B 4.5 19:42:27 10° S 19:48:43 85° E 19:54:56 10° N
BREEZE-M DEB (TANK) 3.4 19:48:42 10° WNW 19:53:19 28° SW 19:55:06 16° S
Cosmos 614 Rocket 4.5 19:49:31 10° S 19:54:13 38° ESE 19:59:00 10° NE
USA 267 3.5 19:47:56 10° NE 19:54:28 74° NNW 20:01:01 10° WSW
SPOT 5 3.4 19:51:54 18° SE 19:54:40 37° ENE 19:58:40 10° N
SPOT 1/Viking Rocket 3.6 19:54:06 15° SSE 19:58:25 74° ENE 20:03:39 10° N
ERS-1 Rocket 3.3 19:56:07 18° SE 19:59:42 53° ENE 20:04:36 10° N
Spot 2 Rocket 3.5 19:57:18 14° SSE 20:01:49 86° WSW 20:06:58 10° NNW
Cosmos 2239 Rocket 4.5 19:58:11 10° S 20:04:13 64° E 20:10:17 10° NNE
Terra 2.6 20:02:13 19° ESE 20:05:02 38° ENE 20:09:26 10° N
BREEZE-M DEB (TANK) 1.8 20:03:45 10° W 20:06:38 70° N 20:07:40 23° ENE
Cosmos 1862 Rocket 4.5 20:05:22 10° N 20:09:31 35° ENE 20:11:37 23° ESE
Cosmos 1238 Rocket 4.3 20:11:04 14° E 20:11:04 14° E 20:12:33 10° NE
Cosmos 407 Rocket 4.0 20:08:09 17° SSE 20:11:48 40° ESE 20:16:45 10° NE
Cosmos 1980 Rocket 3.0 20:13:16 10° NNW 20:18:37 39° NE 20:22:08 19° ESE
Cosmos 220 Rocket 3.9 20:15:59 10° NNW 20:20:13 85° ENE 20:22:23 28° SSE
Intercosmos 25 4.3 20:20:44 10° NNW 20:26:06 53° W 20:28:54 17° SSW
Cosmos 389 Rocket 3.5 20:25:22 10° NNW 20:28:36 40° W 20:30:37 19° SSW
Cosmos 1862 4.3 20:25:56 10° SSW 20:29:49 46° WNW 20:33:46 10° N
Sich 1 3.2 20:26:20 13° SSW 20:30:14 75° W 20:34:42 10° N
USA 234 3.9 20:26:32 20° SSE 20:30:45 43° SW 20:36:57 10° WNW
Cosmos 1812 3.7 20:28:13 10° NNW 20:31:54 44° W 20:34:25 18° SSW
Cosmos 2251 Rocket 4.4 20:26:49 10° SW 20:31:54 50° WNW 20:37:05 10° NNE
Meteor 2-20 4.4 20:26:26 10° N 20:32:39 89° W 20:36:49 22° S
Cosmos 921 Rocket 4.3 20:30:39 10° N 20:34:21 27° ENE 20:35:53 22° E
CARTOSAT-1 3.6 20:33:16 27° S 20:35:35 75° WSW 20:39:56 10° NNW
Cosmos 1697 Rocket 2.6 20:31:20 10° NNW 20:36:59 86° ENE 20:39:58 29° SSE
SAR-Lupe-2 3.4 20:34:03 10° NNE 20:37:40 87° ESE 20:39:16 31° SSW
Cosmos 1933 Rocket 4.5 20:37:25 28° ESE 20:38:14 30° E 20:42:07 10° NNE
Cosmos 1666 Rocket 3.4 20:35:55 23° S 20:38:34 90° NW 20:42:55 10° N
Cosmos 1833 Rocket 2.6 20:35:49 13° SSW 20:40:44 67° ESE 20:46:20 10° NNE
Cosmos 2360 4.2 20:38:05 10° NNW 20:43:52 77° ENE 20:46:44 31° SE
ATLAS 5 CENTAUR R/B 2.6 20:39:01 10° NW 20:44:38 59° SW 20:48:07 27° SSE
Cosmos 1441 Rocket 4.5 20:46:14 10° SW 20:49:47 39° WNW 20:53:23 10° N
Resurs 01 Rocket 4.2 20:47:41 10° WSW 20:50:03 14° W 20:52:27 10° NW
Cosmos 1140 Rocket 3.4 20:48:34 26° S 20:51:30 66° ESE 20:56:44 10° NNE
COSMOS 2406 3.4 20:46:43 10° SSW 20:52:29 75° WNW 20:58:15 10° NNE
Cosmos 1703 Rocket 4.3 20:52:13 10° N 20:56:19 37° ENE 20:57:16 33° ESE
Okean 1 3.8 20:52:33 10° N 20:56:26 45° ENE 20:57:09 40° ESE
Cosmos 1023 Rocket 4.4 20:55:01 24° SSW 20:58:14 77° ESE 21:03:33 10° NNE
Iridium 4 Rocket 4.4 20:58:16 25° E 20:58:51 26° E 21:02:31 10° NNE
Cosmos 676 Rocket 4.2 20:58:15 36° SSE 20:59:59 51° ESE 21:05:09 10° NNE
Lacrosse 5 3.3 20:57:58 10° NW 21:02:38 35° NNE 21:07:17 10° E
Meteor 1-4 Rocket 3.1 20:59:54 10° NNW 21:03:18 49° W 21:04:03 41° SW
Cosmos 1515 4.4 21:01:08 10° N 21:04:45 38° ENE 21:05:04 37° E
Cosmos 1818 3.7 20:59:54 10° NW 21:05:19 63° WSW 21:07:21 37° S
Cosmos 1184 Rocket 2.6 21:06:52 81° SW 21:07:00 86° W 21:10:20 10° N
Cosmos 2369 4.0 21:04:19 10° NNW 21:09:59 62° WSW 21:12:22 34° S
SL-16 R/B 3.4 21:05:12 10° NNW 21:10:18 33° NE 21:13:18 20° E
MOS 1-B Rocket 4.2 21:05:57 10° NNE 21:11:32 45° E 21:13:01 37° SE
Cosmos 1934 Rocket 4.5 21:07:45 14° SSW 21:13:07 60° WNW 21:19:28 10° N
Meteor 1-19 Rocket 4.2 21:09:20 10° N 21:14:46 67° ENE 21:16:33 42° SE
Cosmos 1633 Rocket 4.0 21:13:53 21° SW 21:16:34 45° WNW 21:20:51 10° N
SL-8 R/B 4.2 21:13:42 10° W 21:18:13 41° SSW 21:18:33 40° SSW
Meteor 1-20 Rocket 4.3 21:17:30 31° SSW 21:20:27 86° WNW 21:26:21 10° N
Cosmos 1437 Rocket 3.0 21:17:25 10° N 21:21:12 51° ENE 21:21:20 51° E
Cosmos 2278 3.7 21:15:45 10° NNW 21:21:28 73° WSW 21:23:28 41° S
Cosmos 2082 Rocket 2.1 21:19:47 28° SSW 21:22:54 83° ESE 21:28:38 10° NNE
ERBS 3.9 21:21:41 10° W 21:24:47 35° NNW 21:27:52 10° NE
CENTAUR R/B 3.4 21:28:14 29° ESE 21:28:16 29° ESE 21:33:55 10° NE
SPOT 5 4.4 21:31:08 19° SW 21:32:54 24° W 21:36:26 10° NW
Cosmos 1470 Rocket 4.2 21:32:29 33° SW 21:34:09 52° WNW 21:38:30 10° N
Meteor 1-18 Rocket 4.2 21:28:37 10° NNW 21:34:17 79° W 21:36:06 44° S
Cosmos 1602 3.7 21:34:07 70° SW 21:34:28 77° W 21:38:24 10° N
Cosmos 468 Rocket 4.1 21:29:51 10° NNW 21:35:10 67° ENE 21:36:37 46° SE
Cosmos 2322 Rocket 3.1 21:31:06 10° NNW 21:36:28 40° NE 21:38:56 27° ESE
Cosmos 1954 Rocket 4.0 21:34:46 36° SSW 21:37:01 84° WNW 21:42:23 10° NNE
USA 267 4.4 21:30:54 10° ENE 21:37:02 44° N 21:43:10 10° WNW
NOSS 3-2 (A) 3.4 21:38:03 46° SSE 21:39:19 55° ESE 21:45:37 10° NE
Okean 1-7 2.8 21:36:28 10° N 21:40:52 88° WSW 21:41:19 71° S
NOSS 3-2 (C) 3.9 21:41:54 36° ESE 21:41:58 36° ESE 21:47:43 10° NE
Cosmos 2100 Rocket 4.0 21:40:31 44° SSE 21:42:25 66° E 21:48:31 10° NNE
Terra 3.2 21:41:06 23° SW 21:42:51 29° W 21:47:01 10° NW
Aureole 1 Rocket 4.5 21:39:58 21° SW 21:44:40 72° WNW 21:52:44 10° NNE
EO 1 Del DPAF 3.9 21:43:01 10° NNE 21:46:03 44° ENE 21:46:03 44° ENE
Cosmos 1238 Rocket 3.9 21:49:56 27° W 21:50:06 28° WNW 21:52:48 10° NNW
Cosmos 2360 Rocket 3.5 21:49:03 10° NNW 21:54:08 32° NE 21:57:04 21° E
Cosmos 405 Rocket 3.4 21:55:23 43° W 21:55:39 44° WNW 21:59:14 10° N
Cosmos 540 Rocket 4.1 21:51:18 10° NNW 21:56:18 46° ENE 21:57:39 38° ESE
Cosmos 2333 Rocket 4.4 21:52:41 10° N 21:56:44 19° NE 22:00:47 10° E
Meteor 1-5 Rocket 4.4 21:56:28 49° SSE 21:57:51 63° E 22:03:44 10° NNE
Cosmos 2061 Rocket 4.1 22:00:00 46° SE 22:01:33 59° E 22:07:38 10° NNE
Cosmos 1867 3.5 22:00:26 41° SW 22:02:27 87° NW 22:07:57 10° NE
Cosmos 1980 Rocket 2.9 21:57:22 10° NW 22:02:39 40° WSW 22:03:53 35° SW
ATLAS 5 CENTAUR R/B 2.3 22:02:52 10° NW 22:05:43 75° NE 22:07:09 46° ESE
Cosmos 2173 Rocket 3.9 22:04:18 47° S 22:06:17 90° W 22:12:30 10° N
Cosmos 1725 Rocket 4.3 22:04:56 44° SE 22:06:26 54° E 22:12:34 10° NNE
Okean 3 3.4 22:07:33 10° N 22:11:49 82° ENE 22:11:49 82° ENE
Meteor 2-4 Rocket 3.8 22:06:47 10° NNW 22:12:32 69° W 22:13:49 52° SSW
Cosmos 921 Rocket 4.1 22:08:50 10° NW 22:12:39 33° W 22:12:40 33° W
Thor Agena Rocket 3.5 22:08:59 10° NNE 22:14:03 77° WNW 22:15:10 54° SW
Cosmos 1500 3.5 22:15:08 62° NNW 22:15:08 62° NNW 22:18:27 10° N
Genesis I 4.4 22:12:19 10° NW 22:15:02 34° W 22:15:02 34° W
ALOS 2 2.4 22:20:23 86° SSW 22:20:27 87° WSW 22:24:54 10° NNW
Cosmos 2016 Rocket 3.9 22:21:20 51° S 22:23:04 84° E 22:29:28 10° N
Cosmos 1869 Rocket 3.9 22:24:33 52° W 22:24:57 55° WNW 22:29:20 10° N
Cosmos 1666 3.3 22:27:56 51° NNE 22:27:56 51° NNE 22:30:52 10° NNE
Cosmos 1802 Rocket 4.1 22:26:44 46° SSW 22:28:48 78° W 22:35:14 10° N
Cosmos 1763 Rocket 3.8 22:24:47 10° NNW 22:29:57 52° WSW 22:30:31 50° SW
USA 238 DEB 3.7 22:28:21 29° SW 22:32:05 80° NW 22:39:04 10° NE
USA 238 3.7 22:28:30 29° SW 22:32:11 80° NW 22:39:10 10° NE
Cosmos 2221 Rocket 3.6 22:29:49 10° NNW 22:34:15 73° W 22:34:15 73° W
Cosmos 1459 Rocket 4.3 22:32:04 38° SW 22:34:19 59° WNW 22:40:36 10° N
Cosmos 1864 Rocket 4.4 22:33:56 55° S 22:35:27 87° E 22:41:42 10° N
Meteor 1-11 Rocket 3.6 22:35:20 62° S 22:36:18 84° E 22:42:01 10° NNE
Cosmos 1850 Rocket 4.2 22:35:21 48° SW 22:36:41 66° WNW 22:41:59 10° NNE
ATLAS 3B R/B 3.3 22:37:36 35° ESE 22:37:55 35° ESE 22:43:49 10° NE
Iridium 4 Rocket 4.3 22:38:02 32° W 22:38:43 34° W 22:42:45 10° NNW
Lacrosse 5 1.8 22:41:02 10° NW 22:46:09 84° NE 22:46:55 64° ESE
Cosmos 1674 Rocket 3.5 22:44:25 10° N 22:48:35 74° NE 22:48:35 74° NE
SL-27 R/B 3.7 22:51:20 38° N 22:51:20 38° N 22:53:40 10° NNE
BREEZE-M DEB (TANK) 4.1 22:45:48 10° WNW 22:50:33 86° SSW 23:11:52 10° ESE
Cosmos 967 Rocket 4.5 22:44:25 10° NW 22:50:51 82° NE 22:52:55 46° SE
SL-16 R/B 2.5 22:49:10 10° NW 22:54:39 51° WSW 22:55:08 49° SW
Cosmos 1536 3.2 22:56:52 60° NW 22:56:52 60° NW 23:00:27 10° N
Cosmos 2084 Rocket 4.4 22:58:29 39° ENE 22:58:29 39° ENE 23:01:30 10° NE
Helios 1B rocket 3.9 22:55:32 10° NE 22:58:34 27° E 22:58:34 27° E
Cosmos 2208 Rocket 4.0 22:54:20 10° NNW 22:59:34 62° WSW 22:59:53 61° SW
SL-16 R/B 4.4 22:54:50 10° ESE 22:59:39 24° NE 23:04:28 10° N
Cosmos 2233 Rocket 3.9 22:58:12 55° S 22:59:43 85° E 23:06:05 10° N
Cosmos 2237 4.1 22:55:13 10° NNW 23:00:58 87° WSW 23:01:59 62° SSE
SL-4 R/B 3.8 23:03:41 19° ENE 23:03:41 19° ENE 23:04:45 10° ENE
Helios 1A 3.1 23:03:25 69° WNW 23:03:25 69° WNW 23:07:18 10° NNW
Cosmos 1570 Rocket 4.4 22:58:58 10° NNW 23:04:04 48° WSW 23:04:18 48° WSW
Tsikada Rocket 4.2 22:58:53 10° NNW 23:05:11 61° W 23:06:40 48° SW
Cosmos 1733 Rocket 3.3 23:07:07 61° WNW 23:07:07 61° WNW 23:11:26 10° N
Cosmos 2082 Rocket 4.3 23:03:18 10° W 23:07:43 23° NW 23:12:08 10° N
Cosmos 1242 Rocket 3.6 23:05:23 10° NNW 23:07:54 41° NW 23:07:54 41° NW
Meteor 2-11 Rocket 4.4 23:10:02 55° SSE 23:11:19 73° E 23:17:25 10° NNE
SL-24 DEB 4.2 23:11:34 10° N 23:16:22 76° W 23:16:39 73° WSW
Cosmos 2219 Rocket 3.0 23:11:00 10° NNW 23:16:31 47° NE 23:19:22 26° ESE
Cosmos 841 Rocket 4.2 23:12:21 10° NW 23:17:10 39° WSW 23:17:11 39° WSW
CENTAUR R/B 2.8 23:15:22 34° WSW 23:18:16 69° NW 23:25:32 10° NE
USA 267 4.3 23:13:09 10° E 23:19:18 45° NNE 23:25:29 10° WNW
Cosmos 44 3.3 23:14:31 10° NW 23:19:18 68° WSW 23:19:18 68° WSW
Cosmos 1975 3.7 23:20:46 41° ENE 23:20:46 41° ENE 23:24:10 10° NNE
Cosmos 1782 Rocket 4.3 23:20:29 41° E 23:20:29 41° E 23:24:32 10° NNE
Cosmos 2322 Rocket 2.8 23:15:16 10° NW 23:20:31 39° WSW 23:20:43 39° WSW
Cosmos 1814 Rocket 4.5 23:16:13 10° NW 23:21:06 43° WSW 23:21:07 43° WSW
COSMOS 2428 3.5 23:15:58 10° NNW 23:21:31 47° NE 23:24:39 24° ESE
Cosmos 1378 4.0 23:19:27 10° NNW 23:22:19 46° NW 23:22:19 46° NW
YAOGAN 11 4.4 23:25:18 56° W 23:25:18 56° W 23:29:42 10° NNW
PSLV R/B 3.6 23:23:37 10° NNE 23:28:13 82° ESE 23:28:24 79° SE
Cosmos 1908 Rocket 3.5 23:29:17 87° N 23:29:17 87° N 23:33:38 10° N
Cosmos 1486 Rocket 4.0 23:29:33 61° SE 23:30:03 64° ESE 23:35:13 10° NNE
Resurs 1-4 Rocket 3.8 23:26:47 10° NE 23:30:44 21° E 23:32:13 19° ESE
Landsat 4 4.1 23:28:14 10° NNE 23:31:32 63° N 23:31:32 63° N
NOSS 3-2 (C) 4.0 23:29:18 26° WSW 23:32:35 54° NW 23:39:13 10° NE
COSMOS 2487 3.5 23:34:50 44° NNE 23:34:50 44° NNE 23:37:17 10° NNE
Cosmos 2360 Rocket 2.4 23:32:54 10° NW 23:38:24 51° WSW 23:38:47 50° SW
Okean 2 Rocket 4.5 23:40:14 27° ESE 23:40:50 28° E 23:44:40 10° NNE
Cosmos 2333 Rocket 2.3 23:36:13 10° NNW 23:42:01 77° ENE 23:44:02 42° SE
Sich 1 Rocket 4.2 23:42:14 44° ESE 23:42:29 44° E 23:46:41 10° NNE
Meteor 2-9 Rocket 4.3 23:41:33 52° SSE 23:42:39 64° E 23:48:13 10° NNE
Cosmos 1271 Rocket 3.8 23:43:43 10° NNW 23:46:24 36° WNW 23:46:24 36° WNW
Cosmos 1743 3.6 23:47:59 42° WNW 23:47:59 42° WNW 23:51:22 10° N
Cosmos 2297 Rocket 4.2 23:47:46 13° ESE 23:49:39 15° E 23:52:43 10° ENE
Cosmos 1975 Rocket 2.9 23:50:06 10° N 23:54:37 85° W 23:54:48 81° SSW
Okean 2 3.6 23:51:02 10° NNW 23:54:43 58° WNW 23:54:43 58° WNW
